Location: Demmingen
(48.6757°N, 10.4375°E)
Time: 05:09:07
(UTC+00:00)

CZ-2C R/B - Pass Details

Date: 09 August 2024
Orbit: 782 x 869 km, 98.3° (Epoch: 08 September)

Event Time Altitude Azimuth Distance (km) Brightness Sun altitude
Exits shadow 23:07:58 - 97° (E) 2,970 5.4 -25.7°
Reaches altitude 10° 23:10:02 10° 81° (E) 2,481 5.2 -25.8°
Maximum altitude 23:12:38 14° 53° (NE) 2,216 5.3 -25.8°
Drops below altitude 10° 23:15:14 10° 24° (NNE) 2,462 5.9 -25.8°
Sets 23:18:47 0° 360° (N) 3,382 7.2 -25.8°
